TimeEST,TemperatureF,Dew PointF,Humidity,Sea Level PressureIn,VisibilityMPH,Wind Direction,Wind SpeedMPH,Gust SpeedMPH,PrecipitationIn,Events,Conditions,WindDirDegrees,DateUTC
12:51 AM,30.9,16.0,54,30.31,10.0,Calm,Calm,-,N/A,,Clear,0,2013-02-18 05:51:00
1:51 AM,28.9,15.1,56,30.32,10.0,Calm,Calm,-,N/A,,Clear,0,2013-02-18 06:51:00
2:51 AM,26.1,17.1,69,30.32,9.0,Calm,Calm,-,N/A,,Clear,0,2013-02-18 07:51:00
3:51 AM,28.0,14.0,56,30.32,10.0,Calm,Calm,-,N/A,,Clear,0,2013-02-18 08:51:00
4:51 AM,25.0,16.0,69,30.33,10.0,Calm,Calm,-,N/A,,Clear,0,2013-02-18 09:51:00
5:51 AM,23.0,16.0,74,30.35,10.0,Calm,Calm,-,N/A,,Clear,0,2013-02-18 10:51:00
6:51 AM,27.0,16.0,63,30.35,10.0,Calm,Calm,-,N/A,,Clear,0,2013-02-18 11:51:00
7:51 AM,27.0,17.1,66,30.37,10.0,Calm,Calm,-,N/A,,Clear,0,2013-02-18 12:51:00
8:51 AM,34.0,21.9,61,30.38,9.0,Calm,Calm,-,N/A,,Clear,0,2013-02-18 13:51:00
9:51 AM,42.1,19.9,41,30.40,10.0,Calm,Calm,-,N/A,,Clear,0,2013-02-18 14:51:00
10:51 AM,48.2,17.6,30,30.37,10.0,Calm,Calm,-,N/A,,Clear,0,2013-02-18 15:51:00
11:51 AM,53.1,15.1,22,30.38,10.0,SW,6.9,-,N/A,,Clear,220,2013-02-18 16:51:00
12:51 PM,55.9,17.1,22,30.34,10.0,SW,6.9,-,N/A,,Clear,220,2013-02-18 17:51:00
1:51 PM,57.9,19.0,22,30.30,10.0,Variable,6.9,-,N/A,,Clear,0,2013-02-18 18:51:00
2:51 PM,57.9,19.9,23,30.28,10.0,SSW,8.1,-,N/A,,Clear,200,2013-02-18 19:51:00
3:51 PM,57.9,19.9,23,30.26,10.0,SSE,9.2,16.1,N/A,,Clear,160,2013-02-18 20:51:00
4:51 PM,57.0,23.0,27,30.25,10.0,South,6.9,-,N/A,,Clear,190,2013-02-18 21:51:00
5:51 PM,54.0,23.0,30,30.25,10.0,South,6.9,-,N/A,,Clear,190,2013-02-18 22:51:00
6:51 PM,50.0,23.0,35,30.25,10.0,South,4.6,-,N/A,,Clear,170,2013-02-18 23:51:00
7:51 PM,46.9,24.1,41,30.23,10.0,SSE,4.6,-,N/A,,Clear,150,2013-02-19 00:51:00
8:51 PM,45.0,24.1,44,30.23,10.0,SSE,3.5,-,N/A,,Clear,150,2013-02-19 01:51:00
9:51 PM,41.0,24.1,51,30.22,10.0,ESE,3.5,-,N/A,,Partly Cloudy,120,2013-02-19 02:51:00
10:51 PM,43.0,25.0,49,30.19,9.0,SSE,4.6,-,N/A,,Clear,150,2013-02-19 03:51:00
11:51 PM,39.0,25.0,57,30.19,9.0,SE,5.8,-,N/A,,Partly Cloudy,140,2013-02-19 04:51:00